Regional Weather Roundup
Issued by NWS New Orleans/Baton Rouge, LA

Home | Current Version | Previous Version | Text Only | Print | Product List | Glossary Off
Versions: 1 2 3 4 5 6 7 8 9 10 11 12 13 14 15 16 17 18 19 20 21 22 23 24 25 26 27 28 29 30 31 32 33 34 35 36 37 38 39 40 41 42 43 44 45 46 47 48 49 50

238
ASUS44 KLIX 200810
RWRLIX
NEW ORLEANS REGIONAL WEATHER ROUNDUP
NATIONAL WEATHER SERVICE NEW ORLEANS LA
300 AM CDT SAT SEP 20 2014

NOTE: "FAIR" INDICATES FEW OR NO CLOUDS BELOW 12,000 FEET WITH NO
      SIGNIFICANT WEATHER AND/OR OBSTRUCTIONS TO VISIBILITY.
      SKY/WX - SKY CONDITION AND SIGNIFICANT WEATHER.
      TMP - AIR TEMPERATURE.     DP    - DEWPOINT TEMPERATURE.
      RH  - RELATIVE HUMIDITY.   PRES  - PRESSURE.
      HI  - HEAT INDEX.          WCI   - WIND CHILL INDEX.

*  THESE STATIONS ARE NOT NWS OR FAA STATIONS AND ARE NOT UNDER
   NWS QUALITY CONTROL.

LAZ038-040-048-061>063-065>067-069-200900-
SOUTHEAST LOUISIANA

CITY           SKY/WX    TMP DP  RH WIND       PRES   REMARKS
N.O. AUDUBON     N/A     78  71  78 MISG        N/A
N.O. INTL ARPT PTCLDY    78  68  71 E5        29.92S
N.O. LAKEFRONT CLEAR     79  72  79 E13       29.92S
N.O. DOWNTOWN*   N/A     81  66  61 E5        29.92S
SLIDELL        CLEAR     70  67  90 N5        29.93F
BATON ROUGE    CLEAR     70  68  93 NE5       29.94S
BOOTHVILLE     CLEAR     81  71  71 E13       29.90F
BELLE CHASSE   CLEAR     76  69  79 NE6       29.91S
BOGALUSA*        N/A     69  66  89 CALM      29.97S FOG
GALLIANO*      NOT AVBL
NEW ROADS*       N/A     71  70  97 CALM      29.94S
GONZALES*        N/A     71  71 100 NE3       29.93R
HAMMOND*       CLEAR     72  66  83 NE3       29.96S
HOUMA*         CLEAR     71  66  82 N3        29.91S
PORT FOURCHON* PTSUNNY   81  72  74 E14       29.92S

$$

MSZ070-080>082-200900-
SOUTHERN MISSISSIPPI

CITY           SKY/WX    TMP DP  RH WIND       PRES   REMARKS
MCCOMB         CLEAR     70  67  90 CALM      29.97S
GULFPORT       CLEAR     74  68  81 NE7       29.93F
BILOXI         CLEAR     74  69  83 E9        29.94F
PASCAGOULA     CLEAR     71  69  93 NE5       29.95S

$$

COASTAL OBSERVATIONS
LAKE AND NEARSHORE STATIONS

STATION/POSITION TIME  TEMP    WIND        PRES    WAVE
                       AIR SEA DIR/SP/G            HT/PER
                 (UTC) (F)     (DEG/KT/KT) (MB)    (FT/S)
PASCAGOULA       0800   75      50/ 10/ 13 1013.4
WAVELAND YACHT   0800   77      70/ 11/ 13 1012.8
GRAND ISLE       0800   81 82   90/ 13/ 18 1012.6
SOUTHWEST PASS   0800   81 89   80/ 23/ 25 1012.3
NEW CANAL        0800   80 81   80/  9/ 11 1013.4
SHELL BEACH      0800   80 78   90/ 13/ 18 1012.7

OFFSHORE STATIONS

STATION/POSITION TIME  TEMP    WIND        PRES    WAVE
                       AIR SEA DIR/SP/G            HT/PER
                 (UTC) (F)     (DEG/KT/KT) (MB)    (FT/S)
64 S DAUPHIN ISL 0728   82 84   80/ 21/ 25 1012.8    6/ 7

$$




USA.gov is the U.S. government's official web portal to all federal, state and local government web resources and services.